Find Shi Jian 11-05

NORAD ID: 39202 Int'l Des: 2013-035 Owner: CNSA Country: CN operational
LEOCIRCULARRETROGRADESSO

Aktuelle Ansicht

3D-Globus wird geladen...

About Shi Jian 11-05

Shi Jian 11-05 (NORAD 39202) is a satellite launched Jul 15, 2013 by CNSA of CN. It operates in LEO, CIRCULAR, RETROGRADE, SSO orbit with a mass of 300.00 kg.

Nächste Überflüge

Passes for default location (London). Set your location on the main map for personalized predictions.

Höhenverlauf

Loading altitude history...

Zweizeiliger Elementsatz

1 39202U 13035A 26194.83144686 .00000612 00000-0 12366-3 0 9990
2 39202 98.2860 19.8310 0010530 145.0184 215.1712 14.64918291693131
Epoch: 13. Juli 2026 • Age: 7 hours

Aktueller Status

Höhe 674.1 km
Apogäum / Perigäum N/A
Geschwindigkeit 7.53 km/s
Subsatellitenpunkt 32.25°N, 134.36°W
Startdatum 15. Juli 2013
Alter 12.9 years
Typ other

Technische Details

Klassifizierung Payload
Masse 300.00 kg
Trockenmasse 300.00 kg
Gesamtmasse 300.00 kg
Länge 1.00 m
Durchmesser 1.00 m
Spannweite 3.00 m
Form Box + 2 Pan
Hersteller DFHZ
Bus-Typ CAST-2000
Phasenstatus In Orbit
Besitzer/Staat CNSA/CN

Most Searched